Carbondale, IL

2:34 PM CDT on October 20, 2019 (GMT -0500)
Southern Illinois

Weather History for KMDH - September, 2019

Change the Weather History Date:

Sunday, September 15, 2019

  Actual Average Record
Temperature  
Mean Temperature 75 °F -  
Max Temperature 93 °F 80 °F 106 °F (1939)
Min Temperature 57 °F 55 °F 38 °F (1923)
Cooling Degree Days 10    
Growing Degree Days 25 (Base 50)    
Moisture  
Dew Point 62 °F    
Average Humidity 75    
Maximum Humidity 97    
Minimum Humidity 39    
Precipitation  
Precipitation 0.00 in - - ()
Sea Level Pressure  
Sea Level Pressure 30.11 in    
Wind  
Wind Speed 1 mph (SSW)    
Max Wind Speed 10 mph    
Max Gust Speed -    
Visibility 9 miles    
Events      
Averages and records for this station are not official NWS values.
T = Trace of Precipitation, MM = Missing Value Source: NWS Daily Summary

Daily Weather History Graph

Daily Weather History Graph

Search for Another Location

Airport or City:

Astronomy

Sep. 15, 2019 Rise Set
Actual Time 6:38 AM CDT 7:05 PM CDT
Civil Twilight 6:12 AM CDT 7:31 PM CDT
Nautical Twilight 5:41 AM CDT 8:02 PM CDT
Astronomical Twilight 5:09 AM CDT 8:33 PM CDT
Moon 8:13 PM CDT (9/15) 7:48 AM CDT (9/15)
Length of Visible Light 13h 19m
Length of Day
12h 26m
Full, 98% of the Moon is Illuminated
Sep 15
Full
Sep 21
Last Quarter
Sep 28
New
Oct 5
First Quarter
Oct 13
Full

Hourly Weather History & Observations

Time (CDT) Temp. Heat Index Dew Point Humidity Pressure Visibility Wind Dir Wind Speed Gust Speed Precip Events Conditions
12:52 AM 60.1 °F - 57.0 °F 90% 30.17 in 10.0 mi Calm Calm - N/A   Clear
1:52 AM 59.0 °F - 57.0 °F 93% 30.16 in 10.0 mi Calm Calm - N/A   Clear
2:52 AM 59.0 °F - 57.0 °F 93% 30.15 in 10.0 mi Calm Calm - N/A   Clear
3:10 AM 59.0 °F - 57.0 °F 93% 30.15 in 2.5 mi Calm Calm - N/A   Clear
3:17 AM 59.0 °F - 57.0 °F 93% 30.15 in 10.0 mi Calm Calm - N/A   Clear
3:26 AM 59.0 °F - 55.9 °F 90% 30.14 in 1.5 mi Calm Calm - N/A   Clear
3:52 AM 57.9 °F - 57.0 °F 97% 30.13 in 0.8 mi Calm Calm - N/A   Clear
4:23 AM 57.9 °F - 57.0 °F 97% 30.14 in 2.0 mi Calm Calm - N/A   Clear
4:30 AM 57.9 °F - 55.9 °F 93% 30.13 in 10.0 mi Calm Calm - N/A   Clear
4:52 AM 59.0 °F - 57.0 °F 93% 30.13 in 10.0 mi Calm Calm - N/A   Clear
5:52 AM 60.1 °F - 57.9 °F 93% 30.14 in 10.0 mi Calm Calm - N/A   Clear
6:52 AM 59.0 °F - 57.0 °F 93% 30.14 in 10.0 mi Calm Calm - N/A   Clear
7:52 AM 64.9 °F - 62.1 °F 90% 30.14 in 10.0 mi Calm Calm - N/A   Clear
8:52 AM 72.0 °F - 64.0 °F 76% 30.15 in 10.0 mi SSE 3.5 mph - N/A   Clear
9:52 AM 81.0 °F 82.7 °F 64.9 °F 58% 30.16 in 10.0 mi SSW 4.6 mph - N/A   Clear
10:52 AM 86.0 °F 87.3 °F 64.0 °F 48% 30.16 in 10.0 mi West 5.8 mph - N/A   Clear
11:52 AM 89.1 °F 91.3 °F 66.0 °F 46% 30.14 in 10.0 mi SSW 5.8 mph - N/A   Clear
12:52 PM 91.0 °F 93.0 °F 64.9 °F 42% 30.12 in 10.0 mi SSW 3.5 mph - N/A   Clear
1:52 PM 90.0 °F 92.4 °F 66.0 °F 45% 30.09 in 10.0 mi SW 6.9 mph - N/A   Clear
2:52 PM 93.0 °F 95.0 °F 64.9 °F 39% 30.06 in 10.0 mi SSW 10.4 mph - N/A   Clear
3:52 PM 91.9 °F 94.5 °F 66.0 °F 42% 30.04 in 10.0 mi SW 5.8 mph - N/A   Clear
4:52 PM 90.0 °F 91.7 °F 64.9 °F 43% 30.02 in 10.0 mi South 8.1 mph - N/A   Clear
5:52 PM 87.1 °F 89.9 °F 66.9 °F 51% 30.02 in 10.0 mi South 4.6 mph - N/A   Clear
6:52 PM 82.9 °F 88.8 °F 73.0 °F 72% 30.02 in 10.0 mi SE 3.5 mph - N/A   Clear
7:52 PM 78.1 °F - 68.0 °F 71% 30.03 in 10.0 mi SSE 3.5 mph - N/A   Clear
8:52 PM 75.9 °F - 66.9 °F 74% 30.04 in 10.0 mi Calm Calm - N/A   Clear
9:52 PM 73.0 °F - 66.9 °F 81% 30.05 in 10.0 mi Calm Calm - N/A   Clear
10:52 PM 70.0 °F - 66.0 °F 87% 30.06 in 10.0 mi Calm Calm - N/A   Clear
11:52 PM 69.1 °F - 66.0 °F 90% 30.06 in 10.0 mi Calm Calm - N/A   Clear